{"data":{"norad_id":66928,"intl_designator":"2025-286D","name":"STARLINK-35944","alt_names":[],"object_type":"PAYLOAD","status":"ACTIVE","operator":null,"country":"US","launch_date":"2025-12-07","launch_site_code":"AFWTR","launch_vehicle":null,"mission":null,"orbit_class":"UNKNOWN","rcs_meters":null,"size_class":null,"mass_kg":null,"dimensions":null,"purposes":["comms"],"wikipedia_slug":null,"has_3d_model":false,"image_url":null,"decayed_at":null,"tle_current":{"epoch":"2026-05-25T00:32:11.995584Z","epoch_age_seconds":73185,"freshness":"FRESH","line1":"1 66928U 25286D   26145.02236106  .00038944  00000+0  11576-2 0  9991","line2":"2 66928  53.1606   3.8966 0001074  87.7701 272.3424 15.34405060 27100","mean_motion":15.3440506,"eccentricity":0.0001074,"inclination_deg":53.1606,"raan_deg":3.8966,"arg_perigee_deg":87.7701,"mean_anomaly_deg":272.3424,"bstar":0.0011576,"rev_number":2710,"period_min":93.847448600046,"perigee_km":461.95349623552,"apogee_km":463.42290548866,"semimajor_km":6840.8252008621,"source":"CELESTRAK","updated_at":"2026-05-25T13:38:21.385211Z"}}}